Time,TemperatureF,DewpointF,PressureIn,WindDirection,WindDirectionDegrees,WindSpeedMPH,WindSpeedGustMPH,Humidity,HourlyPrecipIn,Conditions,Clouds,dailyrainin,SoftwareType,DateUTC
2013-03-24 00:07:00,3.4,0.0,30.36,SSW,207,9.0,-999.0,86,-99.99,,,0.00,weatherlink.com 1.10,2013-03-24 06:07:00,
2013-03-24 00:22:00,3.5,0.0,30.37,SSW,212,9.0,-999.0,86,-99.99,,,0.00,weatherlink.com 1.10,2013-03-24 06:22:00,
2013-03-24 00:37:00,3.3,0.0,30.37,SW,221,12.0,-999.0,86,-99.99,,,0.00,weatherlink.com 1.10,2013-03-24 06:37:00,
2013-03-24 00:52:00,3.4,0.0,30.36,WSW,239,6.0,-999.0,86,-99.99,,,0.00,weatherlink.com 1.10,2013-03-24 06:52:00,
2013-03-24 01:07:00,3.0,0.0,30.37,SSW,213,8.0,-999.0,86,-99.99,,,0.00,weatherlink.com 1.10,2013-03-24 07:07:00,
2013-03-24 01:23:00,3.0,0.0,30.36,SW,219,8.0,-999.0,86,-99.99,,,0.00,weatherlink.com 1.10,2013-03-24 07:23:00,
2013-03-24 01:38:00,2.7,-1.0,30.35,South,189,16.0,-999.0,86,-99.99,,,0.00,weatherlink.com 1.10,2013-03-24 07:38:00,
2013-03-24 01:53:00,2.8,0.0,30.35,WSW,238,8.0,-999.0,86,-99.99,,,0.00,weatherlink.com 1.10,2013-03-24 07:53:00,
2013-03-24 02:08:00,2.6,-1.0,30.34,SW,233,13.0,-999.0,86,-99.99,,,0.00,weatherlink.com 1.10,2013-03-24 08:08:00,
2013-03-24 02:23:00,2.3,-1.0,30.34,SW,234,10.0,-999.0,86,-99.99,,,0.00,weatherlink.com 1.10,2013-03-24 08:23:00,
2013-03-24 02:39:00,2.3,-1.0,30.34,SW,225,11.0,-999.0,86,-99.99,,,0.00,weatherlink.com 1.10,2013-03-24 08:39:00,
2013-03-24 02:54:00,2.0,-1.0,30.33,SSW,205,9.0,-999.0,86,-99.99,,,0.00,weatherlink.com 1.10,2013-03-24 08:54:00,
2013-03-24 03:09:00,2.5,-1.0,30.33,SSW,213,12.0,-999.0,86,-99.99,,,0.00,weatherlink.com 1.10,2013-03-24 09:09:00,
2013-03-24 03:24:00,2.4,-1.0,30.32,SSW,208,7.0,-999.0,86,-99.99,,,0.00,weatherlink.com 1.10,2013-03-24 09:24:00,
2013-03-24 03:39:00,2.4,-1.0,30.32,SW,219,16.0,-999.0,86,-99.99,,,0.00,weatherlink.com 1.10,2013-03-24 09:39:00,
2013-03-24 03:54:00,2.4,-1.0,30.32,SSW,205,11.0,-999.0,86,-99.99,,,0.00,weatherlink.com 1.10,2013-03-24 09:54:00,
2013-03-24 04:09:00,2.4,-1.0,30.32,SW,217,7.0,-999.0,86,-99.99,,,0.00,weatherlink.com 1.10,2013-03-24 10:09:00,
2013-03-24 04:25:00,2.3,-1.0,30.31,SW,223,11.0,-999.0,86,-99.99,,,0.00,weatherlink.com 1.10,2013-03-24 10:25:00,
2013-03-24 04:40:00,2.3,-1.0,30.31,SW,225,8.0,-999.0,86,-99.99,,,0.00,weatherlink.com 1.10,2013-03-24 10:40:00,
2013-03-24 04:55:00,2.3,-1.0,30.31,SW,230,10.0,-999.0,86,-99.99,,,0.00,weatherlink.com 1.10,2013-03-24 10:55:00,
2013-03-24 05:11:00,1.8,-2.0,30.31,WSW,239,9.0,-999.0,85,-99.99,,,0.00,weatherlink.com 1.10,2013-03-24 11:11:00,
2013-03-24 05:25:00,1.2,-2.0,30.31,SW,229,11.0,-999.0,85,-99.99,,,0.00,weatherlink.com 1.10,2013-03-24 11:25:00,
2013-03-24 05:41:00,1.4,-2.0,30.31,West,260,5.0,-999.0,85,-99.99,,,0.00,weatherlink.com 1.10,2013-03-24 11:41:00,
2013-03-24 05:56:00,1.2,-2.0,30.32,WSW,246,7.0,-999.0,85,-99.99,,,0.00,weatherlink.com 1.10,2013-03-24 11:56:00,
2013-03-24 06:11:00,0.7,-3.0,30.32,West,267,11.0,-999.0,85,-99.99,,,0.00,weatherlink.com 1.10,2013-03-24 12:11:00,
2013-03-24 06:41:00,0.4,-3.0,30.32,WNW,297,13.0,-999.0,85,-99.99,,,0.00,weatherlink.com 1.10,2013-03-24 12:41:00,
2013-03-24 06:56:00,0.4,-3.0,30.32,West,267,10.0,-999.0,85,-99.99,,,0.00,weatherlink.com 1.10,2013-03-24 12:56:00,
2013-03-24 07:12:00,0.4,-3.0,30.33,West,278,14.0,-999.0,85,-99.99,,,0.00,weatherlink.com 1.10,2013-03-24 13:12:00,
2013-03-24 07:26:00,0.2,-3.0,30.34,West,266,6.0,-999.0,85,-99.99,,,0.00,weatherlink.com 1.10,2013-03-24 13:26:00,
2013-03-24 07:42:00,0.2,-3.0,30.34,West,268,8.0,-999.0,85,-99.99,,,0.00,weatherlink.com 1.10,2013-03-24 13:42:00,
2013-03-24 07:57:00,0.1,-3.0,30.34,WSW,254,6.0,-999.0,85,-99.99,,,0.00,weatherlink.com 1.10,2013-03-24 13:57:00,
2013-03-24 08:12:00,0.4,-3.0,30.35,WNW,300,8.0,-999.0,85,-99.99,,,0.00,weatherlink.com 1.10,2013-03-24 14:12:00,
2013-03-24 08:27:00,0.6,-3.0,30.35,WNW,290,4.0,-999.0,85,-99.99,,,0.00,weatherlink.com 1.10,2013-03-24 14:27:00,
2013-03-24 08:42:00,1.0,-3.0,30.36,WNW,286,3.0,-999.0,85,-99.99,,,0.00,weatherlink.com 1.10,2013-03-24 14:42:00,
2013-03-24 08:57:00,1.9,-2.0,30.36,WNW,285,5.0,-999.0,85,-99.99,,,0.00,weatherlink.com 1.10,2013-03-24 14:57:00,
2013-03-24 09:13:00,2.9,-1.0,30.36,WNW,284,3.0,-999.0,85,-99.99,,,0.00,weatherlink.com 1.10,2013-03-24 15:13:00,
2013-03-24 09:28:00,3.7,1.0,30.36,West,269,6.0,-999.0,86,-99.99,,,0.00,weatherlink.com 1.10,2013-03-24 15:28:00,
2013-03-24 09:43:00,4.0,1.0,30.36,WSW,241,6.0,-999.0,86,-99.99,,,0.00,weatherlink.com 1.10,2013-03-24 15:43:00,
2013-03-24 09:58:00,4.4,1.0,30.35,West,266,6.0,-999.0,86,-99.99,,,0.00,weatherlink.com 1.10,2013-03-24 15:58:00,
2013-03-24 10:13:00,5.2,2.0,30.35,West,259,6.0,-999.0,86,-99.99,,,0.00,weatherlink.com 1.10,2013-03-24 16:13:00,
2013-03-24 10:28:00,5.9,3.0,30.35,WNW,286,4.0,-999.0,86,-99.99,,,0.00,weatherlink.com 1.10,2013-03-24 16:28:00,
2013-03-24 10:44:00,6.5,3.0,30.36,WNW,302,3.0,-999.0,86,-99.99,,,0.00,weatherlink.com 1.10,2013-03-24 16:44:00,
2013-03-24 10:59:00,6.1,3.0,30.35,WSW,237,3.0,-999.0,86,-99.99,,,0.00,weatherlink.com 1.10,2013-03-24 16:59:00,
2013-03-24 11:14:00,6.6,4.0,30.35,WNW,303,5.0,-999.0,87,-99.99,,,0.00,weatherlink.com 1.10,2013-03-24 17:14:00,
2013-03-24 11:29:00,6.4,3.0,30.36,NNW,346,7.0,-999.0,86,-99.99,,,0.00,weatherlink.com 1.10,2013-03-24 17:29:00,
2013-03-24 11:45:00,5.3,2.0,30.36,North,355,4.0,-999.0,86,-99.99,,,0.00,weatherlink.com 1.10,2013-03-24 17:45:00,
2013-03-24 11:59:00,5.0,2.0,30.36,North,360,3.0,-999.0,86,-99.99,,,0.00,weatherlink.com 1.10,2013-03-24 17:59:00,
2013-03-24 12:14:00,6.1,3.0,30.36,NNW,330,0.0,-999.0,87,-99.99,,,0.00,weatherlink.com 1.10,2013-03-24 18:14:00,
2013-03-24 12:30:00,7.0,4.0,30.36,NNW,342,5.0,-999.0,87,-99.99,,,0.00,weatherlink.com 1.10,2013-03-24 18:30:00,
2013-03-24 12:45:00,7.8,5.0,30.36,West,278,2.0,-999.0,87,-99.99,,,0.00,weatherlink.com 1.10,2013-03-24 18:45:00,
2013-03-24 13:00:00,8.0,5.0,30.36,NW,306,1.0,-999.0,87,-99.99,,,0.00,weatherlink.com 1.10,2013-03-24 19:00:00,
2013-03-24 13:15:00,9.1,6.0,30.36,West,272,5.0,-999.0,87,-99.99,,,0.00,weatherlink.com 1.10,2013-03-24 19:15:00,
2013-03-24 13:31:00,8.0,5.0,30.35,WSW,254,10.0,-999.0,86,-99.99,,,0.00,weatherlink.com 1.10,2013-03-24 19:31:00,
2013-03-24 13:45:00,9.5,7.0,30.36,West,260,10.0,-999.0,88,-99.99,,,0.00,weatherlink.com 1.10,2013-03-24 19:45:00,
2013-03-24 14:01:00,9.0,6.0,30.36,South,170,5.0,-999.0,86,-99.99,,,0.00,weatherlink.com 1.10,2013-03-24 20:01:00,
2013-03-24 14:16:00,8.0,5.0,30.36,NNW,329,6.0,-999.0,87,-99.99,,,0.00,weatherlink.com 1.10,2013-03-24 20:16:00,
2013-03-24 14:31:00,8.6,6.0,30.35,WNW,287,8.0,-999.0,87,-99.99,,,0.00,weatherlink.com 1.10,2013-03-24 20:31:00,
2013-03-24 14:46:00,8.9,6.0,30.35,WNW,286,2.0,-999.0,87,-99.99,,,0.00,weatherlink.com 1.10,2013-03-24 20:46:00,
2013-03-24 15:01:00,8.8,6.0,30.35,NW,321,4.0,-999.0,87,-99.99,,,0.00,weatherlink.com 1.10,2013-03-24 21:01:00,
2013-03-24 15:16:00,8.5,5.0,30.35,NW,326,5.0,-999.0,87,-99.99,,,0.00,weatherlink.com 1.10,2013-03-24 21:16:00,
2013-03-24 15:32:00,8.0,5.0,30.36,NNE,13,4.0,-999.0,87,-99.99,,,0.00,weatherlink.com 1.10,2013-03-24 21:32:00,
2013-03-24 16:02:00,9.4,6.0,30.37,West,280,3.0,-999.0,87,-99.99,,,0.00,weatherlink.com 1.10,2013-03-24 22:02:00,
2013-03-24 16:17:00,9.2,6.0,30.37,ENE,74,0.0,-999.0,88,-99.99,,,0.00,weatherlink.com 1.10,2013-03-24 22:17:00,
2013-03-24 16:32:00,8.5,5.0,30.37,NW,326,3.0,-999.0,87,-99.99,,,0.00,weatherlink.com 1.10,2013-03-24 22:32:00,
2013-03-24 16:47:00,8.6,6.0,30.38,WNW,284,5.0,-999.0,87,-99.99,,,0.00,weatherlink.com 1.10,2013-03-24 22:47:00,
2013-03-24 17:03:00,7.7,5.0,30.39,North,350,2.0,-999.0,87,-99.99,,,0.00,weatherlink.com 1.10,2013-03-24 23:03:00,
2013-03-24 17:18:00,6.9,4.0,30.38,WSW,257,7.0,-999.0,86,-99.99,,,0.00,weatherlink.com 1.10,2013-03-24 23:18:00,
2013-03-24 17:33:00,8.1,5.0,30.39,NNW,339,10.0,-999.0,87,-99.99,,,0.00,weatherlink.com 1.10,2013-03-24 23:33:00,
2013-03-24 17:48:00,7.8,5.0,30.39,WNW,298,5.0,-999.0,87,-99.99,,,0.00,weatherlink.com 1.10,2013-03-24 23:48:00,
2013-03-24 18:03:00,6.9,4.0,30.40,WNW,284,8.0,-999.0,87,-99.99,,,0.00,weatherlink.com 1.10,2013-03-25 00:03:00,
2013-03-24 18:18:00,6.4,3.0,30.41,West,281,4.0,-999.0,87,-99.99,,,0.00,weatherlink.com 1.10,2013-03-25 00:18:00,
2013-03-24 18:34:00,6.1,3.0,30.41,NW,309,2.0,-999.0,87,-99.99,,,0.00,weatherlink.com 1.10,2013-03-25 00:34:00,
2013-03-24 18:49:00,5.7,2.0,30.41,WNW,283,6.0,-999.0,86,-99.99,,,0.00,weatherlink.com 1.10,2013-03-25 00:49:00,
2013-03-24 19:04:00,4.2,1.0,30.42,WNW,294,2.0,-999.0,86,-99.99,,,0.00,weatherlink.com 1.10,2013-03-25 01:04:00,
2013-03-24 19:19:00,3.4,0.0,30.42,NNW,347,0.0,-999.0,86,-99.99,,,0.00,weatherlink.com 1.10,2013-03-25 01:19:00,
2013-03-24 19:34:00,2.8,0.0,30.42,NNW,341,4.0,-999.0,86,-99.99,,,0.00,weatherlink.com 1.10,2013-03-25 01:34:00,
2013-03-24 19:50:00,2.3,-1.0,30.42,WNW,296,4.0,-999.0,86,-99.99,,,0.00,weatherlink.com 1.10,2013-03-25 01:50:00,
2013-03-24 20:05:00,1.8,-1.0,30.43,NNW,338,6.0,-999.0,86,-99.99,,,0.00,weatherlink.com 1.10,2013-03-25 02:05:00,
2013-03-24 20:20:00,1.8,-1.0,30.43,NW,316,6.0,-999.0,86,-99.99,,,0.00,weatherlink.com 1.10,2013-03-25 02:20:00,
2013-03-24 20:35:00,1.6,-2.0,30.43,NNW,346,3.0,-999.0,85,-99.99,,,0.00,weatherlink.com 1.10,2013-03-25 02:35:00,
2013-03-24 20:50:00,1.1,-2.0,30.44,NNW,333,2.0,-999.0,85,-99.99,,,0.00,weatherlink.com 1.10,2013-03-25 02:50:00,
2013-03-24 21:07:00,1.2,-2.0,30.44,NW,304,6.0,-999.0,86,-99.99,,,0.00,weatherlink.com 1.10,2013-03-25 03:07:00,
2013-03-24 21:21:00,1.4,-2.0,30.45,WNW,292,5.0,-999.0,86,-99.99,,,0.00,weatherlink.com 1.10,2013-03-25 03:21:00,
2013-03-24 22:06:00,1.8,-1.0,30.45,West,277,3.0,-999.0,86,-99.99,,,0.00,weatherlink.com 1.10,2013-03-25 04:06:00,
2013-03-24 22:21:00,1.5,-2.0,30.45,WSW,254,7.0,-999.0,85,-99.99,,,0.00,weatherlink.com 1.10,2013-03-25 04:21:00,
2013-03-24 22:37:00,1.7,-2.0,30.45,West,270,3.0,-999.0,86,-99.99,,,0.00,weatherlink.com 1.10,2013-03-25 04:37:00,
2013-03-24 22:52:00,1.8,-1.0,30.45,WSW,250,10.0,-999.0,86,-99.99,,,0.00,weatherlink.com 1.10,2013-03-25 04:52:00,
2013-03-24 23:07:00,1.8,-1.0,30.45,West,276,6.0,-999.0,86,-99.99,,,0.00,weatherlink.com 1.10,2013-03-25 05:07:00,
2013-03-24 23:22:00,1.9,-1.0,30.46,West,277,3.0,-999.0,86,-99.99,,,0.00,weatherlink.com 1.10,2013-03-25 05:22:00,
2013-03-24 23:37:00,2.0,-1.0,30.46,West,275,5.0,-999.0,86,-99.99,,,0.00,weatherlink.com 1.10,2013-03-25 05:37:00,
2013-03-24 23:52:00,1.9,-1.0,30.46,WSW,242,10.0,-999.0,86,-99.99,,,0.00,weatherlink.com 1.10,2013-03-25 05:52:00,